When you browse on this site, cookies collect data to enhance your experience and personalize the content and advertising you see.
Visit our Privacy Policy to learn more. By continuing to use the site, you agree to this use of cookies and data.
  • In Romania
  • List of Countries
  • For 7 days
  • Water Temperature
  • Weather Map
  • Weather Widgets
  • user-avatar
    Login

    Hourly Weather Artashat

    Today, 21 November, Thursday

    Time Temperature Precipitation Wind Pressure Humidity
    00:00 -3°C° 0 mm 0 mps 598 mmHg 43%
    01:00 -3°C° 0 mm 0 mps 597 mmHg 46%
    02:00 -4°C° 0 mm 0 mps 597 mmHg 48%
    03:00 -4°C° 0 mm 0 mps 597 mmHg 50%
    04:00 -4°C° 0 mm 0 mps 597 mmHg 51%
    05:00 -4°C° 0 mm 0 mps 597 mmHg 53%
    06:00 -5°C° 0 mm 0 mps 597 mmHg 55%
    07:00 -3°C° 0 mm 0 mps 598 mmHg 49%
    08:00 -1°C° 0 mm 0 mps 599 mmHg 42%
    09:00 +2°C° 0 mm 1 mps 600 mmHg 36%
    10:00 +3°C° 0 mm 1 mps 600 mmHg 36%
    11:00 +3°C° 0 mm 1 mps 600 mmHg 36%
    12:00 +4°C° 0 mm 1 mps 600 mmHg 36%
    13:00 +4°C° 0 mm 1 mps 599 mmHg 37%
    14:00 +3°C° 0 mm 2 mps 599 mmHg 37%
    15:00 +3°C° 0 mm 2 mps 599 mmHg 38%
    16:00 +3°C° 0 mm 1 mps 599 mmHg 45%
    17:00 +1°C° 0 mm 1 mps 598 mmHg 52%
    18:00 0°C° 0 mm 1 mps 598 mmHg 58%
    19:00 -1°C° 0 mm 1 mps 598 mmHg 59%
    20:00 -1°C° 0 mm 1 mps 598 mmHg 59%
    21:00 -1°C° 0 mm 1 mps 598 mmHg 59%
    22:00 -1°C° 0 mm 1 mps 598 mmHg 61%
    23:00 -1°C° 0 mm 1 mps 599 mmHg 62%

    Tomorrow, 22 November, Friday

    Time Temperature Precipitation Wind Pressure Humidity
    00:00 -1°C° 0 mm 1 mps 599 mmHg 64%
    01:00 -3°C° 0 mm 0 mps 598 mmHg 68%
    02:00 -4°C° 0 mm 0 mps 598 mmHg 72%
    03:00 -4°C° 0 mm 0 mps 598 mmHg 76%
    04:00 -5°C° 0 mm 0 mps 598 mmHg 78%
    05:00 -5°C° 0 mm 0 mps 598 mmHg 80%
    06:00 -5°C° 0 mm 0 mps 598 mmHg 81%
    07:00 -4°C° 0 mm 0 mps 599 mmHg 75%
    08:00 -2°C° 0 mm 1 mps 600 mmHg 68%
    09:00 0°C° 0 mm 1 mps 601 mmHg 62%
    10:00 0°C° 0 mm 1 mps 601 mmHg 59%
    11:00 +1°C° 0 mm 1 mps 601 mmHg 56%
    12:00 +1°C° 0 mm 2 mps 601 mmHg 53%
    13:00 +1°C° 0 mm 2 mps 601 mmHg 53%
    14:00 +1°C° 0 mm 2 mps 600 mmHg 53%
    15:00 +1°C° 0 mm 2 mps 600 mmHg 53%
    16:00 -1°C° 0 mm 2 mps 600 mmHg 59%
    17:00 0°C° 0 mm 1 mps 600 mmHg 65%
    18:00 -1°C° 0 mm 1 mps 600 mmHg 71%
    19:00 -2°C° 0 mm 1 mps 600 mmHg 73%
    20:00 -3°C° 0 mm 0 mps 600 mmHg 75%
    21:00 -4°C° 0 mm 0 mps 600 mmHg 77%
    22:00 -4°C° 0 mm 0 mps 600 mmHg 78%
    23:00 -4°C° 0 mm 0 mps 600 mmHg 80%

    Day after tomorrow, 23 November, Saturday

    Time Temperature Precipitation Wind Pressure Humidity
    00:00 -4°C° 0 mm 0 mps 600 mmHg 81%
    01:00 -5°C° 0 mm 0 mps 600 mmHg 82%
    02:00 -5°C° 0 mm 0 mps 600 mmHg 83%
    03:00 -5°C° 0 mm 0 mps 600 mmHg 84%
    04:00 -5°C° 0 mm 0 mps 600 mmHg 85%
    05:00 -6°C° 0 mm 0 mps 600 mmHg 85%
    06:00 -6°C° 0 mm 0 mps 600 mmHg 86%
    07:00 -5°C° 0 mm 0 mps 601 mmHg 79%
    08:00 -3°C° 0 mm 0 mps 602 mmHg 72%
    09:00 -1°C° 0 mm 1 mps 602 mmHg 65%
    10:00 0°C° 0 mm 1 mps 602 mmHg 62%
    11:00 +1°C° 0 mm 1 mps 602 mmHg 59%
    12:00 -1°C° 0 mm 2 mps 602 mmHg 56%
    13:00 +1°C° 0 mm 2 mps 602 mmHg 56%
    14:00 +1°C° 0 mm 2 mps 602 mmHg 55%
    15:00 +1°C° 0 mm 2 mps 601 mmHg 55%
    16:00 -1°C° 0 mm 2 mps 601 mmHg 61%
    17:00 -1°C° 0 mm 1 mps 601 mmHg 67%
    18:00 -2°C° 0 mm 1 mps 601 mmHg 73%
    19:00 -2°C° 0 mm 1 mps 601 mmHg 74%
    20:00 -3°C° 0 mm 0 mps 601 mmHg 76%
    21:00 -3°C° 0 mm 0 mps 601 mmHg 77%
    22:00 -4°C° 0 mm 0 mps 601 mmHg 79%
    23:00 -4°C° 0 mm 0 mps 601 mmHg 80%

    24 November, Sunday

    Time Temperature Precipitation Wind Pressure Humidity
    00:00 -4°C° 0 mm 0 mps 601 mmHg 81%
    01:00 -5°C° 0 mm 0 mps 601 mmHg 82%
    02:00 -5°C° 0 mm 0 mps 601 mmHg 82%
    03:00 -5°C° 0 mm 0 mps 601 mmHg 83%
    04:00 -5°C° 0 mm 0 mps 601 mmHg 83%
    05:00 -5°C° 0 mm 0 mps 600 mmHg 84%
    06:00 -5°C° 0 mm 0 mps 600 mmHg 84%
    07:00 -4°C° 0 mm 0 mps 601 mmHg 78%
    08:00 -3°C° 0 mm 0 mps 602 mmHg 72%
    09:00 -2°C° 0 mm 0 mps 602 mmHg 65%
    10:00 0°C° 0 mm 1 mps 602 mmHg 62%
    11:00 +1°C° 0 mm 1 mps 602 mmHg 59%
    12:00 +2°C° 0 mm 1 mps 602 mmHg 55%
    13:00 +2°C° 0 mm 1 mps 601 mmHg 55%
    14:00 +2°C° 0 mm 1 mps 601 mmHg 55%
    15:00 +1°C° 0 mm 2 mps 601 mmHg 54%
    16:00 +1°C° 0 mm 1 mps 601 mmHg 60%
    17:00 0°C° 0 mm 1 mps 600 mmHg 65%
    18:00 -1°C° 0 mm 1 mps 600 mmHg 70%
    19:00 -2°C° 0 mm 0 mps 600 mmHg 72%
    20:00 -3°C° 0 mm 0 mps 600 mmHg 74%
    21:00 -3°C° 0 mm 0 mps 600 mmHg 76%
    22:00 -3°C° 0 mm 0 mps 600 mmHg 77%
    23:00 -4°C° 0 mm 0 mps 600 mmHg 78%

    25 November, Monday

    Time Temperature Precipitation Wind Pressure Humidity
    00:00 -4°C° 0 mm 0 mps 599 mmHg 80%
    01:00 -4°C° 0 mm 0 mps 599 mmHg 80%
    02:00 -4°C° 0 mm 0 mps 599 mmHg 80%
    03:00 -4°C° 0 mm 0 mps 599 mmHg 80%
    04:00 -4°C° 0 mm 0 mps 599 mmHg 79%
    05:00 -4°C° 0 mm 0 mps 599 mmHg 79%
    06:00 -4°C° 0 mm 0 mps 599 mmHg 79%
    07:00 -3°C° 0 mm 0 mps 600 mmHg 73%
    08:00 -2°C° 0 mm 0 mps 600 mmHg 67%
    09:00 -1°C° 0 mm 0 mps 601 mmHg 62%
    10:00 0°C° 0 mm 0 mps 601 mmHg 59%
    11:00 +2°C° 0 mm 1 mps 600 mmHg 56%
    12:00 +3°C° 0 mm 1 mps 600 mmHg 53%
    13:00 +3°C° 0 mm 1 mps 600 mmHg 53%
    14:00 +3°C° 0 mm 1 mps 600 mmHg 53%
    15:00 +3°C° 0 mm 1 mps 600 mmHg 53%
    16:00 +2°C° 0 mm 1 mps 599 mmHg 58%
    17:00 0°C° 0 mm 0 mps 599 mmHg 64%
    18:00 -2°C° 0 mm 0 mps 599 mmHg 69%
    19:00 -2°C° 0 mm 0 mps 599 mmHg 70%
    20:00 -2°C° 0 mm 0 mps 599 mmHg 71%
    21:00 -3°C° 0 mm 0 mps 599 mmHg 71%
    22:00 -3°C° 0 mm 0 mps 598 mmHg 72%
    23:00 -3°C° 0 mm 0 mps 598 mmHg 72%

    26 November, Tuesday

    Time Temperature Precipitation Wind Pressure Humidity
    00:00 -3°C° 0 mm 0 mps 598 mmHg 72%
    01:00 -4°C° 0 mm 0 mps 598 mmHg 73%
    02:00 -4°C° 0 mm 0 mps 598 mmHg 73%
    03:00 -4°C° 0 mm 0 mps 598 mmHg 74%
    04:00 -4°C° 0 mm 0 mps 598 mmHg 73%
    05:00 -4°C° 0 mm 0 mps 598 mmHg 73%
    06:00 -4°C° 0 mm 0 mps 598 mmHg 72%
    07:00 -3°C° 0 mm 0 mps 599 mmHg 65%
    08:00 -1°C° 0 mm 0 mps 600 mmHg 58%
    09:00 0°C° 0 mm 0 mps 600 mmHg 50%
    10:00 +1°C° 0 mm 0 mps 600 mmHg 48%
    11:00 +3°C° 0 mm 1 mps 600 mmHg 46%
    12:00 +4°C° 0 mm 1 mps 600 mmHg 45%
    13:00 +4°C° 0 mm 1 mps 600 mmHg 45%
    14:00 +4°C° 0 mm 1 mps 599 mmHg 45%
    15:00 +4°C° 0 mm 1 mps 599 mmHg 45%
    16:00 +3°C° 0 mm 1 mps 599 mmHg 49%
    17:00 +2°C° 0 mm 1 mps 599 mmHg 52%
    18:00 +1°C° 0 mm 1 mps 599 mmHg 55%
    19:00 +1°C° 0 mm 1 mps 599 mmHg 57%
    20:00 0°C° 0 mm 1 mps 599 mmHg 59%
    21:00 0°C° 0 mm 1 mps 598 mmHg 61%
    22:00 0°C° 0 mm 1 mps 598 mmHg 62%
    23:00 0°C° 0 mm 1 mps 598 mmHg 63%
    Show more